User: anonymous   Login
Location: Starry Hill Observatory
(46.8582°N, 122.3590°W)
Time: 22:07:45
(UTC-08:00)
Language:

Cosmos 1300 Rocket - Orbit

View from above orbital plane
View from above orbital plane
View from above satellite
View from above satellite

Ground track
Ground track

The orbit data is extracted from the following two-line orbital elements,

1 12786U 81082B   17323.74977724  .00000125  00000-0  11834-4 0  9995
2 12786  82.4888 181.0941 0019071 100.5586 259.7779 14.84707533957897
Epoch (UTC): 19 November 2017 17:59:40
Eccentricity: 0.0019071
inclination: 82.4888°
perigee height: 601 km
apogee height: 628 km
right ascension of ascending node: 181.0941°
argument of perigee: 100.5586°
revolutions per day: 14.84707533
mean anomaly at epoch: 259.7779°
orbit number at epoch: 95789

The dashed part of the orbit path shows where the satellite is in the earth's shadow,  

DLR